| time (UTC) | temp F | wind direction | speed MPH | gust MPH | rain 1hr in | rain 24hr in | rain mn in | humidity % | barometer mb |
| 20260502130249 | 42 | 200 | 5.0 | 10.0 | 0.00 | 0.00 | 0.00 | 42 | 1012.5 |
| 20260502123242 | 41 | 191 | 6.0 | 11.0 | 0.00 | 0.00 | 0.00 | 43 | 1012.3 |
| 20260502122241 | 40 | 207 | 6.0 | 12.0 | 0.00 | 0.00 | 0.00 | 44 | 1012.0 |
| 20260502121245 | 40 | 197 | 7.0 | 12.0 | 0.00 | 0.00 | 0.00 | 44 | 1011.9 |
| 20260502120255 | 40 | 195 | 5.0 | 10.0 | 0.00 | 0.00 | 0.00 | 44 | 1011.9 |
| 20260502115241 | 40 | 197 | 8.0 | 11.0 | 0.00 | 0.00 | 0.00 | 44 | 1011.8 |
| 20260502114241 | 41 | 207 | 9.0 | 12.0 | 0.00 | 0.00 | 0.00 | 43 | 1011.8 |
| 20260502113249 | 41 | 180 | 8.0 | 13.0 | 0.00 | 0.00 | 0.00 | 43 | 1011.8 |
| 20260502112252 | 40 | 173 | 10.0 | 12.0 | 0.00 | 0.00 | 0.00 | 45 | 1011.8 |
| 20260502111250 | 40 | 175 | 10.0 | 12.0 | 0.00 | 0.00 | 0.00 | 45 | 1011.9 |
| 20260502110255 | 40 | 172 | 10.0 | 14.0 | 0.00 | 0.00 | 0.00 | 45 | 1011.9 |
| 20260502105240 | 40 | 182 | 10.0 | 13.0 | 0.00 | 0.00 | 0.00 | 46 | 1011.9 |
| 20260502104243 | 40 | 196 | 8.0 | 12.0 | 0.00 | 0.00 | 0.00 | 46 | 1011.9 |
| 20260502103300 | 40 | 171 | 9.0 | 12.0 | 0.00 | 0.00 | 0.00 | 46 | 1011.9 |
| 20260502102241 | 40 | 173 | 8.0 | 11.0 | 0.00 | 0.00 | 0.00 | 46 | 1011.8 |
| 20260502101304 | 40 | 185 | 9.0 | 13.0 | 0.00 | 0.00 | 0.00 | 46 | 1011.8 |
| 20260502100246 | 40 | 173 | 8.0 | 10.0 | 0.00 | 0.00 | 0.00 | 46 | 1011.8 |
| 20260502091247 | 40 | 180 | 6.0 | 9.0 | 0.00 | 0.00 | 0.00 | 46 | 1011.8 |
| 20260502090251 | 40 | 188 | 7.0 | 10.0 | 0.00 | 0.00 | 0.00 | 46 | 1011.8 |
| 20260502071246 | 40 | 163 | 3.0 | 4.0 | 0.00 | 0.00 | 0.00 | 45 | 1012.2 |
| 20260502070250 | 41 | 163 | 2.0 | 6.0 | 0.00 | 0.00 | 0.00 | 43 | 1012.2 |
| 20260502065247 | 40 | 163 | 5.0 | 7.0 | 0.00 | 0.00 | 0.00 | 43 | 1012.2 |
| 20260502064246 | 39 | 151 | 3.0 | 4.0 | 0.00 | 0.00 | 0.00 | 47 | 1012.3 |
| 20260502063249 | 39 | 151 | 3.0 | 4.0 | 0.00 | 0.00 | 0.00 | 46 | 1012.3 |
| 20260502062249 | 40 | 151 | 4.0 | 4.0 | 0.00 | 0.00 | 0.00 | 46 | 1012.3 |
| 20260502061238 | 40 | 151 | 3.0 | 4.0 | 0.00 | 0.00 | 0.00 | 44 | 1012.3 |
| 20260502060243 | 39 | 151 | 3.0 | 5.0 | 0.00 | 0.00 | 0.00 | 48 | 1012.3 |
| 20260502055252 | 38 | 151 | 4.0 | 5.0 | 0.00 | 0.03 | 0.00 | 51 | 1012.3 |
| 20260502054254 | 39 | 150 | 3.0 | 5.0 | 0.00 | 0.03 | 0.00 | 50 | 1012.2 |
| 20260502053257 | 39 | 148 | 3.0 | 5.0 | 0.00 | 0.03 | 0.00 | 50 | 1012.2 |
| 20260502052255 | 40 | 148 | 4.0 | 5.0 | 0.00 | 0.03 | 0.00 | 49 | 1012.1 |
| 20260502051259 | 41 | 146 | 3.0 | 5.0 | 0.00 | 0.03 | 0.00 | 47 | 1012.0 |
| 20260502050246 | 42 | 146 | 2.0 | 4.0 | 0.00 | 0.03 | 0.00 | 45 | 1012.0 |
| 20260502045254 | 43 | 144 | 2.0 | 5.0 | 0.00 | 0.07 | 0.00 | 43 | 1011.9 |
| 20260502044253 | 43 | 143 | 2.0 | 3.0 | 0.00 | 0.07 | 0.00 | 47 | 1011.8 |
| 20260502043256 | 43 | 143 | 3.0 | 4.0 | 0.00 | 0.07 | 0.00 | 45 | 1011.8 |
| 20260502042301 | 43 | 143 | 0.0 | 4.0 | 0.00 | 0.07 | 0.00 | 47 | 1011.8 |
| 20260502041258 | 44 | 143 | 2.0 | 4.0 | 0.00 | 0.07 | 0.00 | 45 | 1011.6 |
| 20260502040246 | 44 | 143 | 1.0 | 2.0 | 0.00 | 0.07 | 0.00 | 46 | 1011.6 |
| 20260502035249 | 44 | 143 | 2.0 | 4.0 | 0.00 | 0.07 | 0.00 | 42 | 1011.3 |
| 20260502034250 | 44 | 143 | 3.0 | 4.0 | 0.00 | 0.07 | 0.00 | 41 | 1011.1 |
| 20260502033303 | 43 | 143 | 3.0 | 5.0 | 0.00 | 0.07 | 0.00 | 43 | 1011.1 |
| 20260502032151 | 43 | 142 | 4.0 | 5.0 | 0.00 | 0.07 | 0.00 | 44 | 1010.7 |
| 20260502031156 | 43 | 127 | 4.0 | 4.0 | 0.00 | 0.07 | 0.00 | 43 | 1010.6 |
| 20260502030154 | 44 | 126 | 3.0 | 5.0 | 0.00 | 0.07 | 0.00 | 41 | 1010.6 |
| 20260502025158 | 46 | 111 | 4.0 | 4.0 | 0.00 | 0.08 | 0.00 | 37 | 1010.5 |
| 20260502024202 | 47 | 109 | 3.0 | 4.0 | 0.00 | 0.08 | 0.00 | 35 | 1010.2 |
| 20260502023144 | 47 | 107 | 1.0 | 4.0 | 0.00 | 0.08 | 0.00 | 30 | 1010.2 |
| 20260502022147 | 49 | 105 | 4.0 | 6.0 | 0.00 | 0.08 | 0.00 | 33 | 1010.0 |
| 20260502021148 | 52 | 48 | 0.0 | 2.0 | 0.00 | 0.08 | 0.00 | 21 | 1009.9 |
| 20260502020153 | 53 | 48 | 1.0 | 4.0 | 0.00 | 0.08 | 0.00 | 20 | 1009.9 |
| 20260502015140 | 54 | 36 | 0.0 | 3.0 | 0.00 | 0.08 | 0.00 | 19 | 1009.9 |
| 20260502014141 | 55 | 36 | 2.0 | 3.0 | 0.00 | 0.08 | 0.00 | 19 | 1009.7 |
| 20260502013145 | 55 | 36 | 1.0 | 4.0 | 0.00 | 0.08 | 0.00 | 19 | 1009.7 |
| 20260502012146 | 56 | 32 | 1.0 | 7.0 | 0.00 | 0.08 | 0.00 | 16 | 1009.4 |
| 20260502011150 | 56 | 24 | 4.0 | 8.0 | 0.00 | 0.08 | 0.00 | 16 | 1009.3 |
| 20260502010155 | 56 | 339 | 1.0 | 6.0 | 0.00 | 0.08 | 0.00 | 16 | 1009.3 |
| 20260502005142 | 57 | 9 | 3.0 | 8.0 | 0.00 | 0.08 | 0.00 | 15 | 1009.3 |
| 20260502004148 | 57 | 360 | 4.0 | 10.0 | 0.00 | 0.08 | 0.00 | 15 | 1009.3 |
| 20260502003152 | 58 | 5 | 5.0 | 10.0 | 0.00 | 0.08 | 0.00 | 15 | 1009.3 |
| 20260502002152 | 58 | 56 | 2.0 | 10.0 | 0.00 | 0.08 | 0.00 | 15 | 1009.3 |
| 20260502001149 | 58 | 360 | 3.0 | 7.0 | 0.00 | 0.08 | 0.00 | 14 | 1009.3 |
| 20260502000153 | 58 | 97 | 6.0 | 12.0 | 0.00 | 0.08 | 0.00 | 15 | 1009.3 |
| 20260501235155 | 59 | 5 | 9.0 | 17.0 | 0.00 | 0.08 | 0.00 | 15 | 1009.3 |
| 20260501234156 | 59 | 21 | 8.0 | 14.0 | 0.00 | 0.08 | 0.00 | 15 | 1009.3 |
| 20260501233151 | 60 | 36 | 8.0 | 12.0 | 0.00 | 0.08 | 0.00 | 16 | 1009.3 |
| 20260501232152 | 59 | 21 | 4.0 | 10.0 | 0.00 | 0.08 | 0.00 | 17 | 1009.3 |
| 20260501231142 | 59 | 14 | 6.0 | 13.0 | 0.00 | 0.08 | 0.00 | 16 | 1009.2 |
| 20260501230139 | 59 | 22 | 6.0 | 11.0 | 0.00 | 0.08 | 0.00 | 16 | 1009.2 |
| 20260501225141 | 59 | 355 | 5.0 | 13.0 | 0.00 | 0.08 | 0.00 | 16 | 1009.2 |
| 20260501224145 | 60 | 34 | 6.0 | 16.0 | 0.00 | 0.08 | 0.00 | 16 | 1009.2 |
| 20260501223149 | 60 | 336 | 2.0 | 11.0 | 0.00 | 0.08 | 0.00 | 17 | 1009.2 |
| 20260501222153 | 60 | 331 | 3.0 | 10.0 | 0.00 | 0.08 | 0.00 | 20 | 1009.3 |
| 20260501221154 | 60 | 70 | 7.0 | 14.0 | 0.00 | 0.08 | 0.00 | 19 | 1009.3 |
| 20260501220156 | 59 | 30 | 3.0 | 6.0 | 0.00 | 0.08 | 0.00 | 20 | 1009.3 |
| 20260501215201 | 59 | 24 | 1.0 | 13.0 | 0.00 | 0.08 | 0.00 | 18 | 1009.4 |
| 20260501214141 | 58 | 49 | 3.0 | 9.0 | 0.00 | 0.08 | 0.00 | 23 | 1009.5 |
| 20260501213147 | 59 | 29 | 8.0 | 13.0 | 0.00 | 0.08 | 0.00 | 21 | 1009.5 |
| 20260501212147 | 58 | 341 | 3.0 | 8.0 | 0.00 | 0.08 | 0.00 | 21 | 1009.8 |
| 20260501211151 | 58 | 53 | 5.0 | 13.0 | 0.00 | 0.08 | 0.00 | 25 | 1009.9 |
| 20260501210155 | 58 | 86 | 8.0 | 14.0 | 0.00 | 0.08 | 0.00 | 24 | 1009.9 |
| 20260501205156 | 59 | 27 | 2.0 | 8.0 | 0.00 | 0.08 | 0.00 | 24 | 1009.9 |
| 20260501204201 | 60 | 14 | 2.0 | 10.0 | 0.00 | 0.08 | 0.00 | 23 | 1009.9 |
| 20260501203143 | 60 | 70 | 6.0 | 10.0 | 0.00 | 0.08 | 0.00 | 24 | 1009.9 |
| 20260501202143 | 60 | 304 | 3.0 | 9.0 | 0.00 | 0.08 | 0.00 | 25 | 1010.0 |
| 20260501201146 | 58 | 234 | 3.0 | 7.0 | 0.00 | 0.08 | 0.00 | 26 | 1010.1 |
| 20260501200151 | 58 | 229 | 3.0 | 9.0 | 0.00 | 0.08 | 0.00 | 28 | 1010.1 |
| 20260501195151 | 56 | 275 | 3.0 | 6.0 | 0.00 | 0.08 | 0.00 | 27 | 1010.2 |
| 20260501194216 | 56 | 186 | 4.0 | 10.0 | 0.00 | 0.08 | 0.00 | 26 | 1010.1 |
| 20260501193145 | 57 | 219 | 6.0 | 10.0 | 0.00 | 0.08 | 0.00 | 26 | 1010.1 |
| 20260501192149 | 56 | 323 | 7.0 | 13.0 | 0.00 | 0.08 | 0.00 | 28 | 1010.4 |
| 20260501191149 | 56 | 215 | 1.0 | 8.0 | 0.00 | 0.08 | 0.00 | 27 | 1010.5 |
| 20260501190213 | 55 | 209 | 1.0 | 3.0 | 0.00 | 0.08 | 0.00 | 29 | 1010.5 |
| 20260501185155 | 54 | 204 | 2.0 | 9.0 | 0.00 | 0.08 | 0.00 | 29 | 1010.6 |
| 20260501184154 | 54 | 175 | 4.0 | 8.0 | 0.00 | 0.08 | 0.00 | 33 | 1010.6 |
| 20260501183154 | 54 | 196 | 3.0 | 8.0 | 0.00 | 0.08 | 0.00 | 34 | 1010.6 |
| 20260501182143 | 52 | 304 | 3.0 | 6.0 | 0.00 | 0.08 | 0.00 | 33 | 1010.7 |
| 20260501181143 | 52 | 169 | 3.0 | 8.0 | 0.00 | 0.08 | 0.00 | 32 | 1010.8 |
| 20260501180147 | 53 | 244 | 5.0 | 8.0 | 0.00 | 0.08 | 0.00 | 32 | 1010.8 |
| 20260501175206 | 53 | 294 | 5.0 | 7.0 | 0.00 | 0.08 | 0.00 | 38 | 1011.0 |
| 20260501174151 | 52 | 292 | 2.0 | 11.0 | 0.00 | 0.08 | 0.00 | 32 | 1011.1 |
| 20260501173154 | 53 | 296 | 5.0 | 7.0 | 0.00 | 0.08 | 0.00 | 32 | 1011.1 |
| 20260501172157 | 53 | 360 | 2.0 | 6.0 | 0.00 | 0.08 | 0.00 | 35 | 1011.2 |
| 20260501171145 | 52 | 275 | 1.0 | 5.0 | 0.00 | 0.08 | 0.00 | 39 | 1011.2 |
| 20260501170144 | 52 | 275 | 3.0 | 6.0 | 0.00 | 0.08 | 0.00 | 36 | 1011.2 |
| 20260501165146 | 52 | 300 | 4.0 | 8.0 | 0.00 | 0.08 | 0.00 | 38 | 1011.2 |
| 20260501164151 | 50 | 336 | 2.0 | 5.0 | 0.00 | 0.08 | 0.00 | 43 | 1011.2 |
| 20260501163154 | 50 | 338 | 3.0 | 7.0 | 0.00 | 0.08 | 0.00 | 45 | 1011.2 |
| 20260501162156 | 50 | 9 | 4.0 | 7.0 | 0.00 | 0.08 | 0.00 | 45 | 1011.2 |
| 20260501161219 | 49 | 267 | 1.0 | 4.0 | 0.00 | 0.08 | 0.00 | 46 | 1011.2 |
| 20260501160219 | 48 | 264 | 4.0 | 6.0 | 0.00 | 0.08 | 0.00 | 54 | 1011.2 |
| 20260501155218 | 48 | 254 | 2.0 | 4.0 | 0.00 | 0.08 | 0.00 | 48 | 1011.1 |
| 20260501154141 | 47 | 254 | 1.0 | 5.0 | 0.00 | 0.08 | 0.00 | 53 | 1011.2 |
| 20260501153158 | 46 | 297 | 4.0 | 7.0 | 0.00 | 0.08 | 0.00 | 56 | 1011.2 |
| 20260501152200 | 46 | 279 | 2.0 | 5.0 | 0.00 | 0.08 | 0.00 | 60 | 1011.1 |
| 20260501151145 | 45 | 277 | 3.0 | 6.0 | 0.00 | 0.08 | 0.00 | 63 | 1011.2 |
| 20260501150144 | 44 | 270 | 2.0 | 5.0 | 0.00 | 0.08 | 0.00 | 66 | 1011.2 |
| 20260501145147 | 43 | 267 | 2.0 | 6.0 | 0.00 | 0.08 | 0.00 | 68 | 1011.2 |